Wind_Speed
15 15 16 17 18 18 18 17 14 13 14 13 14 12 12 15 13 11 11 13 12 12 13 14 13 13 13 13 12 13 12 12 11 12 15 17 20 22 25 27 29 31 35 36 36
16 17 17 16 17 18 17 19 18 15 16 10 11 12 11 12 12 11 11 11 13 16 15 14 13 12 13 13 12 13 13 12 11 13 17 20 23 24 26 29 32 34 35 35 35
19 18 19 19 19 17 18 17 18 19 17 14 10 10 12 10 13 13 13 14 15 16 15 14 14 13 14 12 13 14 14 12 12 15 18 22 24 26 27 30 33 36 36 36 36
21 21 21 20 20 20 19 19 17 18 18 17 17 11 12 12 15 15 15 14 14 15 15 14 14 14 13 13 14 15 13 12 15 18 21 25 26 27 29 32 34 36 36 37 38
25 24 23 22 22 23 21 20 21 19 18 18 18 18 15 14 14 18 15 13 13 14 16 16 16 15 14 15 16 16 13 14 16 19 23 27 26 28 30 33 33 35 36 38 41
27 27 25 23 24 24 24 24 22 23 21 20 21 20 19 18 16 16 16 14 14 15 17 17 17 16 15 16 16 15 13 15 18 22 26 28 27 28 30 33 33 35 36 39 42
27 27 27 28 27 26 26 26 25 24 25 24 22 23 21 18 17 15 16 16 15 15 17 17 17 18 16 15 16 15 15 18 21 25 27 28 27 29 31 33 33 35 38 40 42
29 28 29 29 28 29 28 27 29 28 27 27 26 24 23 21 19 18 17 17 17 17 18 18 18 18 17 16 17 18 18 20 22 27 27 28 27 32 30 32 33 35 39 43 42
32 31 32 31 30 30 29 30 30 30 30 30 29 28 25 25 23 21 20 20 20 21 19 19 19 20 19 18 19 20 20 21 26 25 28 28 28 33 29 31 32 35 39 43 46
33 33 34 33 32 32 32 31 31 32 33 33 32 32 27 27 27 24 23 22 22 20 21 21 22 21 20 19 19 22 22 25 26 28 27 28 28 30 29 30 32 35 38 42 47
35 33 33 35 36 35 36 35 34 36 32 34 34 34 31 30 29 27 27 25 25 24 22 22 22 24 22 19 20 24 25 26 28 29 26 29 28 28 28 29 31 33 36 42 43
41 39 38 38 37 37 38 39 39 40 35 35 35 36 36 34 32 30 30 29 28 26 26 22 22 26 22 19 21 24 24 25 26 27 26 28 26 27 27 28 30 32 35 40 40
45 45 44 44 45 43 42 42 43 46 46 35 37 38 40 40 35 33 31 32 30 30 28 27 25 24 22 22 22 25 25 25 25 25 25 26 25 23 26 26 27 29 33 36 37
47 48 45 44 45 47 47 46 47 48 50 48 41 41 42 40 42 37 31 34 34 30 32 30 25 23 23 22 24 23 25 25 25 24 25 23 24 23 23 24 26 27 30 34 34
50 50 50 49 48 48 48 49 49 49 54 57 57 43 37 43 44 37 36 39 35 33 36 30 28 27 22 23 24 22 21 24 23 23 23 23 26 22 23 23 23 24 26 30 29
55 56 54 55 56 55 53 51 50 53 58 61 59 51 43 39 43 39 40 43 39 40 37 33 31 28 27 23 23 20 21 22 22 22 22 21 22 22 19 21 21 21 23 25 26
61 62 61 59 59 58 56 57 56 60 60 62 63 60 56 51 50 46 40 42 42 43 37 35 34 31 30 26 22 22 23 22 21 20 22 19 20 18 18 19 19 17 19 22 22
63 64 65 65 65 66 66 64 67 62 63 67 70 68 64 61 57 52 50 49 42 42 43 42 38 35 32 28 26 25 25 22 21 21 21 20 19 15 17 17 16 14 14 18 18
72 70 69 72 71 71 73 71 67 64 66 68 70 68 66 63 61 61 56 52 49 42 42 41 42 39 34 35 31 27 24 25 22 21 21 17 18 14 16 15 14 12 10 13 15
78 76 75 76 78 80 81 79 76 72 72 75 71 71 68 63 65 61 60 57 49 49 41 40 44 43 39 39 35 29 26 26 22 22 19 17 15 14 14 15 13 10 8 8 11
83 81 79 79 83 86 86 84 80 77 74 76 76 73 69 67 66 64 65 63 51 49 45 41 44 49 45 43 37 34 29 28 25 20 18 16 16 14 14 15 12 9 7 5 7
83 83 80 77 80 80 80 76 74 71 70 72 78 76 73 69 71 70 69 62 55 56 52 37 41 49 43 46 43 40 34 32 28 21 19 18 15 15 14 14 11 8 6 4 4
74 69 72 68 72 71 68 67 66 64 65 65 67 71 69 69 70 72 74 61 59 59 55 52 53 46 50 49 48 46 37 31 28 27 18 20 16 14 13 13 11 8 7 4 2
63 60 67 67 65 64 60 55 57 57 58 60 60 62 69 68 69 73 72 67 62 60 65 55 52 52 49 44 46 44 37 32 32 31 18 18 17 15 13 12 11 8 7 5 3
64 67 72 62 61 54 50 48 49 47 48 52 53 58 61 66 68 69 63 63 63 63 66 65 62 54 54 45 50 49 44 42 40 24 25 19 16 17 14 12 10 8 7 6 4
61 62 54 54 57 57 50 45 39 34 35 41 48 49 56 63 65 64 63 55 61 60 70 68 64 59 55 48 54 49 48 47 41 35 28 22 17 15 13 11 10 8 7 6 5
48 53 59 60 55 53 44 39 38 35 39 40 38 40 46 54 60 65 71 72 61 61 59 65 63 62 62 49 50 54 53 51 45 40 27 25 22 15 13 11 10 8 7 7 6
Wind_Direction
301 306 312 315 314 311 306 301 299 295 301 308 318 308 297 284 275 255 250 245 257 259 254 251 248 249 239 227 222 232 236 243 255 273 281 280 275 272 271 273 277 284 286 287 291
291 298 302 305 309 308 302 302 303 303 306 292 307 306 304 297 287 281 268 253 253 251 247 249 247 247 239 231 231 233 238 246 262 280 287 284 279 276 278 277 280 285 289 290 296
290 288 291 299 303 301 300 299 301 302 303 290 288 303 301 294 288 286 282 271 261 260 252 247 248 241 237 238 239 234 239 253 270 280 288 288 282 280 282 281 284 289 292 297 301
280 279 283 285 290 297 300 299 295 296 296 298 280 285 291 293 288 288 283 277 269 261 258 252 247 249 245 246 244 240 244 261 275 280 285 285 283 285 286 285 288 291 296 302 306
276 276 278 282 284 290 293 297 297 289 288 285 286 277 280 278 287 288 279 272 267 268 264 259 256 252 251 251 243 242 251 270 282 285 283 283 283 285 289 290 292 296 303 307 309
282 283 280 280 282 281 284 291 293 294 285 282 284 279 274 269 273 280 277 267 267 266 267 266 263 258 255 249 247 250 262 274 281 286 283 281 285 288 292 295 298 303 309 311 310
277 275 275 275 276 277 277 280 283 287 289 281 276 281 276 267 270 271 267 263 263 265 269 269 266 263 257 255 257 260 269 277 280 283 283 285 291 293 298 299 303 308 310 313 313
274 274 272 271 275 274 273 273 277 279 281 284 279 275 277 270 266 263 264 257 260 263 265 268 266 264 262 262 264 268 272 276 279 282 283 287 293 296 299 303 308 312 314 315 317
277 276 274 272 270 272 274 273 271 271 274 278 280 278 272 270 262 262 257 256 260 263 265 266 265 263 266 266 268 268 271 272 280 280 283 287 292 293 303 307 313 315 317 320 321
276 275 275 273 272 272 270 270 271 271 269 269 275 276 277 268 265 259 256 253 254 258 266 267 265 264 265 268 270 272 271 273 278 279 280 285 289 297 306 312 316 318 320 325 322
275 274 273 274 274 271 271 270 270 269 267 265 267 270 272 272 266 262 262 257 255 255 258 264 266 267 265 271 271 270 273 276 277 277 279 284 289 300 309 314 318 319 323 328 323
275 275 275 274 274 274 273 273 273 271 266 263 264 265 266 265 266 264 261 261 259 257 257 258 264 266 270 265 266 270 271 273 273 276 282 283 293 302 311 316 319 321 328 331 327
277 277 276 274 276 274 272 274 275 273 271 262 264 260 265 263 264 263 261 259 259 259 262 258 259 263 265 264 263 266 267 269 273 277 279 286 289 303 309 315 319 324 332 336 331
275 273 274 273 273 274 273 270 272 271 272 274 259 263 262 264 262 266 261 259 259 261 261 258 259 251 259 265 262 264 270 271 273 275 278 283 290 304 308 317 320 326 336 343 335
273 271 272 271 273 271 270 271 270 270 273 272 272 266 263 265 263 257 258 257 257 256 257 260 254 254 250 257 264 265 270 272 271 275 276 285 294 301 309 319 319 326 340 349 340
273 272 272 272 272 271 270 268 269 267 266 266 269 272 268 263 265 262 257 255 252 253 252 255 254 252 250 248 259 265 267 271 271 272 275 280 291 303 312 314 317 327 342 357 346
274 275 274 272 271 270 269 268 265 263 271 269 268 270 271 267 263 260 258 255 254 254 255 252 256 247 248 245 251 260 264 268 270 271 274 281 290 296 306 309 312 323 343 4 354
275 275 274 272 271 269 269 267 263 268 271 266 268 268 267 267 267 263 257 254 251 251 247 243 246 247 243 247 243 250 258 266 269 270 273 282 293 295 296 302 307 319 343 7 6
276 274 272 272 271 269 267 265 266 265 263 263 261 259 262 261 262 264 260 254 250 247 248 247 246 245 243 244 245 241 255 256 260 264 272 278 285 291 292 296 300 312 339 6 21
273 270 269 270 270 270 268 267 267 265 263 261 258 260 258 252 254 256 256 256 248 246 243 240 241 241 238 238 240 242 243 251 254 261 269 278 281 289 290 287 292 305 328 2 30
273 271 269 270 270 270 268 267 265 263 261 257 256 255 251 249 248 248 249 251 243 240 239 239 238 242 237 235 240 242 242 247 249 249 261 270 274 288 284 278 286 295 311 350 19
277 277 275 273 270 269 267 268 264 260 257 255 253 250 250 247 244 245 244 244 242 235 231 227 237 241 238 235 234 235 235 237 242 243 248 257 270 279 273 273 276 287 292 328 6
276 277 273 270 268 267 267 264 263 259 254 251 249 249 243 241 241 240 242 241 239 229 235 224 227 228 236 228 227 231 233 234 238 241 240 254 262 267 260 264 267 274 279 294 344
268 269 266 268 265 265 266 262 259 256 254 251 250 247 244 236 236 239 238 237 233 230 229 223 222 223 236 237 234 231 233 232 234 235 236 243 252 257 251 259 262 261 268 272 296
258 253 251 261 261 264 262 258 255 257 256 253 247 244 241 236 234 234 231 240 237 230 228 228 222 220 222 223 230 223 224 226 228 224 230 232 245 244 247 246 255 251 256 263 263
255 251 252 245 254 264 260 255 262 255 259 256 252 244 240 237 232 225 220 222 234 237 234 229 228 216 220 222 227 220 219 224 223 219 221 227 232 232 234 230 241 240 242 250 257
250 244 235 243 244 251 251 265 260 256 262 258 256 256 244 239 233 224 220 216 221 227 234 228 224 216 218 221 224 222 213 218 221 220 215 222 228 226 226 224 224 225 231 228 240
Height
5850 5848 5846 5844 5842 5841 5839 5836 5834 5832 5829 5829 5828 5826 5826 5827 5825 5824 5824 5826 5825 5825 5826 5827 5826 5826 5826 5827 5827 5829 5830 5831 5832 5833 5834 5834 5834 5834 5834 5833 5833 5832 5829 5827 5823
5847 5845 5843 5840 5838 5837 5835 5834 5832 5830 5827 5825 5824 5824 5823 5823 5823 5823 5823 5822 5823 5825 5824 5824 5823 5823 5824 5825 5824 5825 5827 5828 5828 5829 5829 5830 5830 5830 5830 5828 5827 5825 5823 5820 5817
5845 5843 5841 5839 5837 5834 5832 5831 5830 5828 5826 5824 5822 5821 5821 5820 5822 5821 5821 5821 5821 5821 5821 5820 5820 5821 5822 5821 5821 5823 5823 5824 5824 5824 5825 5826 5825 5825 5824 5822 5821 5818 5816 5812 5808
5839 5838 5837 5835 5833 5831 5829 5828 5825 5824 5823 5822 5820 5819 5818 5818 5819 5818 5817 5817 5818 5818 5819 5818 5817 5818 5819 5817 5818 5820 5820 5820 5820 5820 5820 5821 5820 5820 5819 5817 5814 5811 5808 5803 5798
5834 5833 5832 5832 5831 5829 5826 5825 5823 5821 5819 5819 5818 5817 5816 5816 5815 5816 5815 5814 5814 5815 5816 5816 5815 5814 5815 5815 5816 5817 5816 5816 5816 5816 5816 5816 5816 5814 5813 5810 5808 5804 5799 5794 5789
5830 5830 5828 5826 5825 5824 5822 5821 5820 5819 5817 5815 5815 5814 5813 5813 5811 5811 5813 5812 5812 5812 5813 5813 5812 5812 5812 5813 5813 5812 5812 5813 5812 5812 5812 5812 5811 5809 5808 5804 5801 5796 5791 5786 5781
5823 5822 5821 5820 5819 5818 5818 5816 5815 5814 5814 5812 5810 5810 5809 5810 5809 5808 5809 5810 5809 5809 5809 5809 5810 5810 5809 5809 5809 5808 5809 5809 5808 5808 5807 5806 5805 5803 5801 5798 5794 5789 5783 5778 5772
5816 5815 5814 5813 5813 5811 5811 5811 5810 5809 5808 5808 5806 5805 5805 5805 5805 5804 5804 5805 5805 5805 5805 5805 5806 5807 5806 5805 5805 5805 5805 5804 5805 5803 5802 5800 5800 5796 5796 5792 5787 5782 5776 5770 5762
5808 5807 5806 5806 5805 5804 5804 5804 5803 5802 5801 5801 5801 5800 5800 5800 5801 5801 5800 5801 5801 5801 5801 5801 5802 5802 5802 5801 5802 5801 5800 5800 5798 5799 5796 5795 5794 5791 5791 5786 5781 5776 5769 5761 5751
5801 5800 5798 5797 5797 5797 5795 5795 5795 5795 5795 5794 5795 5796 5796 5795 5795 5795 5796 5796 5796 5796 5797 5797 5797 5797 5796 5797 5798 5796 5796 5794 5793 5792 5791 5790 5790 5786 5785 5780 5775 5770 5763 5754 5743
5791 5790 5790 5789 5789 5788 5788 5787 5787 5786 5787 5787 5788 5787 5788 5790 5789 5791 5792 5792 5791 5791 5790 5791 5793 5792 5792 5793 5793 5791 5791 5790 5788 5786 5786 5784 5784 5782 5779 5774 5770 5765 5758 5748 5737
5783 5782 5781 5779 5778 5780 5779 5778 5776 5776 5779 5779 5779 5781 5779 5779 5782 5784 5785 5787 5786 5786 5785 5786 5787 5786 5788 5787 5788 5787 5786 5785 5783 5781 5781 5779 5779 5776 5773 5769 5765 5760 5753 5744 5731
5773 5773 5773 5770 5769 5770 5769 5769 5768 5765 5765 5774 5771 5770 5771 5770 5773 5776 5778 5779 5780 5780 5780 5780 5781 5781 5783 5783 5782 5783 5781 5780 5779 5777 5775 5775 5774 5772 5769 5765 5761 5756 5749 5739 5728
5760 5760 5759 5758 5760 5757 5759 5758 5757 5755 5754 5759 5762 5761 5762 5764 5762 5767 5772 5772 5773 5775 5774 5774 5776 5776 5777 5779 5778 5777 5777 5775 5773 5773 5771 5771 5770 5767 5765 5761 5757 5752 5746 5736 5726
5747 5746 5747 5746 5745 5745 5747 5746 5747 5747 5744 5742 5742 5753 5756 5756 5754 5761 5761 5760 5766 5767 5766 5771 5771 5771 5771 5773 5774 5773 5772 5771 5769 5768 5767 5765 5763 5763 5760 5757 5754 5750 5744 5735 5725
5734 5734 5733 5732 5732 5732 5732 5733 5734 5736 5732 5728 5731 5737 5744 5748 5745 5750 5752 5752 5757 5756 5759 5762 5764 5765 5766 5766 5768 5769 5766 5766 5764 5763 5763 5762 5761 5758 5756 5754 5751 5746 5741 5734 5725
5716 5717 5716 5715 5715 5716 5715 5716 5720 5721 5726 5720 5720 5725 5729 5732 5735 5740 5742 5742 5747 5748 5753 5755 5756 5758 5760 5761 5762 5763 5763 5761 5761 5759 5759 5758 5757 5756 5753 5751 5749 5745 5740 5733 5725
5697 5696 5697 5696 5697 5696 5695 5697 5698 5713 5712 5709 5705 5708 5714 5717 5721 5726 5729 5731 5736 5739 5742 5742 5747 5750 5756 5757 5755 5756 5758 5757 5756 5755 5754 5754 5753 5753 5749 5748 5746 5743 5738 5733 5726
5675 5674 5676 5672 5674 5672 5672 5673 5685 5693 5691 5685 5686 5693 5698 5702 5706 5709 5713 5720 5724 5728 5731 5735 5737 5741 5748 5748 5749 5750 5752 5752 5751 5750 5749 5751 5749 5748 5746 5745 5743 5741 5737 5733 5727
5649 5651 5655 5650 5646 5646 5643 5654 5662 5670 5668 5664 5670 5673 5680 5688 5689 5692 5698 5705 5713 5718 5721 5725 5726 5731 5735 5738 5741 5744 5746 5747 5745 5746 5745 5745 5745 5745 5743 5742 5740 5738 5735 5732 5728
5621 5623 5628 5630 5621 5617 5619 5628 5634 5645 5642 5643 5648 5651 5659 5665 5671 5676 5681 5690 5700 5704 5708 5714 5714 5716 5723 5729 5736 5737 5738 5741 5741 5741 5741 5741 5742 5741 5741 5739 5737 5735 5734 5731 5728
5590 5592 5598 5602 5589 5592 5594 5602 5610 5619 5615 5615 5618 5627 5635 5645 5649 5655 5663 5672 5684 5689 5689 5701 5702 5702 5713 5716 5723 5727 5730 5732 5735 5736 5736 5737 5739 5738 5738 5737 5735 5733 5731 5729 5727
5559 5569 5565 5573 5565 5567 5572 5576 5584 5591 5590 5590 5595 5605 5614 5619 5626 5635 5644 5658 5663 5670 5674 5684 5682 5690 5693 5703 5709 5715 5724 5727 5730 5729 5731 5732 5735 5735 5735 5734 5732 5730 5729 5727 5726
5541 5539 5540 5542 5547 5547 5552 5561 5561 5566 5567 5568 5578 5587 5590 5599 5608 5616 5629 5632 5642 5652 5656 5661 5669 5678 5685 5700 5704 5710 5718 5721 5722 5723 5727 5728 5730 5731 5732 5731 5729 5728 5727 5726 5725
5520 5519 5520 5521 5527 5535 5538 5543 5543 5550 5553 5554 5561 5566 5573 5578 5588 5597 5613 5617 5623 5633 5639 5645 5656 5666 5673 5682 5684 5696 5705 5709 5711 5722 5719 5722 5726 5727 5728 5728 5727 5725 5725 5724 5724
5498 5500 5508 5511 5515 5520 5523 5528 5534 5540 5541 5540 5543 5552 5555 5556 5569 5581 5592 5604 5609 5620 5627 5635 5646 5654 5659 5671 5673 5684 5692 5698 5706 5710 5715 5717 5721 5723 5724 5725 5724 5722 5723 5723 5723
5482 5485 5491 5496 5501 5506 5511 5520 5523 5528 5528 5528 5533 5535 5539 5546 5554 5563 5573 5581 5591 5604 5612 5623 5633 5640 5647 5658 5663 5667 5680 5688 5699 5703 5711 5712 5714 5719 5720 5721 5720 5720 5720 5721 5721